TimeEEST,TemperatureF,Dew PointF,Humidity,Sea Level PressureIn,VisibilityMPH,Wind Direction,Wind SpeedMPH,Gust SpeedMPH,PrecipitationIn,Events,Conditions,WindDirDegrees,DateUTC
12:20 AM,50.0,39.2,66,30.06,-9999.0,Variable,1.2,-,N/A,Rain,Light Rain,0,2013-04-20 21:20:00
12:50 AM,48.2,39.2,71,30.06,-9999.0,Variable,2.3,-,N/A,,Unknown,0,2013-04-20 21:50:00
1:20 AM,48.2,39.2,71,30.06,-9999.0,North,4.6,-,N/A,,Unknown,350,2013-04-20 22:20:00
1:50 AM,48.2,39.2,71,30.06,-9999.0,Variable,2.3,-,N/A,,Unknown,0,2013-04-20 22:50:00
2:20 AM,46.4,37.4,71,30.06,-9999.0,Variable,3.5,-,N/A,,Unknown,0,2013-04-20 23:20:00
2:50 AM,46.4,37.4,71,30.06,-9999.0,North,4.6,-,N/A,,Unknown,350,2013-04-20 23:50:00
3:20 AM,46.4,39.2,76,30.06,-9999.0,Variable,2.3,-,N/A,,Unknown,0,2013-04-21 00:20:00
3:50 AM,44.6,39.2,81,30.06,-9999.0,North,4.6,-,N/A,,Unknown,350,2013-04-21 00:50:00
4:20 AM,46.4,39.2,76,30.04,-9999.0,NNW,4.6,-,N/A,,Unknown,340,2013-04-21 01:20:00
4:50 AM,46.4,39.2,76,30.04,-9999.0,North,5.8,-,N/A,,Unknown,350,2013-04-21 01:50:00
5:20 AM,44.6,39.2,81,30.04,-9999.0,Variable,3.5,-,N/A,,Unknown,0,2013-04-21 02:20:00
5:50 AM,42.8,37.4,81,30.04,-9999.0,North,4.6,-,N/A,,Unknown,350,2013-04-21 02:50:00
6:20 AM,44.6,39.2,81,30.04,-9999.0,NNW,4.6,-,N/A,,Unknown,340,2013-04-21 03:20:00
6:50 AM,44.6,37.4,76,30.04,-9999.0,NW,4.6,-,N/A,,Unknown,310,2013-04-21 03:50:00
7:20 AM,46.4,37.4,71,30.06,-9999.0,NNW,6.9,-,N/A,,Unknown,330,2013-04-21 04:20:00
7:50 AM,48.2,39.2,71,30.06,-9999.0,Variable,2.3,-,N/A,,Unknown,0,2013-04-21 04:50:00
8:20 AM,51.8,39.2,62,30.06,-9999.0,Variable,3.5,-,N/A,,Unknown,0,2013-04-21 05:20:00
8:50 AM,53.6,41.0,62,30.06,-9999.0,Variable,2.3,-,N/A,,Unknown,0,2013-04-21 05:50:00
9:20 AM,55.4,41.0,58,30.06,-9999.0,Variable,3.5,-,N/A,,Unknown,0,2013-04-21 06:20:00
9:50 AM,57.2,42.8,59,30.06,-9999.0,Variable,3.5,-,N/A,,Unknown,0,2013-04-21 06:50:00
10:20 AM,59.0,41.0,51,30.06,-9999.0,Variable,2.3,-,N/A,,Unknown,0,2013-04-21 07:20:00
10:50 AM,59.0,39.2,48,30.06,-9999.0,NNW,4.6,-,N/A,,Unknown,330,2013-04-21 07:50:00
11:20 AM,62.6,39.2,42,30.06,-9999.0,Variable,2.3,-,N/A,,Unknown,0,2013-04-21 08:20:00
11:50 AM,62.6,37.4,39,30.06,-9999.0,Variable,3.5,-,N/A,,Unknown,0,2013-04-21 08:50:00
12:20 PM,64.4,42.8,45,30.04,-9999.0,SSE,6.9,-,N/A,,Unknown,150,2013-04-21 09:20:00
12:50 PM,64.4,44.6,49,30.04,-9999.0,SSE,4.6,-,N/A,,Unknown,150,2013-04-21 09:50:00
1:20 PM,66.2,41.0,40,30.04,-9999.0,SSE,6.9,-,N/A,,Unknown,150,2013-04-21 10:20:00
1:50 PM,68.0,35.6,30,30.04,-9999.0,SSE,4.6,-,N/A,,Unknown,160,2013-04-21 10:50:00
2:20 PM,64.4,35.6,34,30.01,-9999.0,ENE,5.8,-,N/A,,Unknown,70,2013-04-21 11:20:00
2:50 PM,66.2,35.6,32,30.01,6.2,SSE,6.9,-,N/A,,Scattered Clouds,150,2013-04-21 11:50:00
3:50 PM,68.0,35.6,30,30.01,6.2,Calm,Calm,-,N/A,,Scattered Clouds,0,2013-04-21 12:50:00
4:50 PM,66.2,35.6,32,29.98,6.2,Calm,Calm,-,N/A,,Scattered Clouds,0,2013-04-21 13:50:00
5:50 PM,66.2,33.8,30,29.98,6.2,SE,4.6,-,N/A,,Scattered Clouds,140,2013-04-21 14:50:00
6:50 PM,64.4,39.2,40,29.95,6.2,Calm,Calm,-,N/A,,Scattered Clouds,0,2013-04-21 15:50:00
7:50 PM,60.8,41.0,48,29.98,6.2,Calm,Calm,-,N/A,,Partly Cloudy,0,2013-04-21 16:50:00
8:50 PM,53.6,39.2,58,29.98,6.2,Calm,Calm,-,N/A,,Partly Cloudy,0,2013-04-21 17:50:00
9:20 PM,53.6,37.4,54,30.01,-9999.0,Variable,1.2,-,N/A,,Unknown,0,2013-04-21 18:20:00
9:50 PM,51.8,37.4,58,30.01,-9999.0,Variable,2.3,-,N/A,,Unknown,0,2013-04-21 18:50:00
10:20 PM,53.6,37.4,54,30.01,-9999.0,Variable,3.5,-,N/A,,Unknown,0,2013-04-21 19:20:00
10:50 PM,50.0,37.4,62,30.01,-9999.0,Variable,1.2,-,N/A,,Unknown,0,2013-04-21 19:50:00
11:20 PM,51.8,37.4,58,30.01,-9999.0,Variable,3.5,-,N/A,,Unknown,0,2013-04-21 20:20:00
11:50 PM,50.0,35.6,58,30.01,-9999.0,Variable,3.5,-,N/A,,Unknown,0,2013-04-21 20:50:00